#timestamp,LO_Frequency,Hit,StdDev 
1620759615.0,286046998.2,N
1620759615.9,286046998.2,N
1620759635.7,286046998.9,N
1620759655.6,286046998.6,N
1620759675.4,286047000.3,N
1620759695.3,286047000.6,N
1620759715.1,286047000.1,N
1620759716.0,286047000.1,N
1620759735.8,286047000.1,N
1620759755.7,286047000.5,N
1620759775.5,286046998.9,N
1620759795.4,286046999.5,N
1620759815.2,286046998.9,N
1620759835.0,286046998.6,N
1620759835.9,286046998.6,N
1620759855.8,286046998.4,N
1620759875.6,286046999.3,N
1620759895.4,286047000.6,N
1620759915.3,286047000.9,N
1620759935.1,286046998.7,N
1620759955.9,286046998.8,N
1620759975.7,286047000.9,N
1620759995.5,286046998.5,N
1620760015.4,286047000.8,N
1620760035.2,286046998.7,N
1620760055.0,286046998.5,N
1620760056.0,286046998.5,N
1620760075.8,286046998.2,N
1620760095.6,286047000.2,N
1620760115.5,286047002.6,N
1620760135.3,286047000.6,N
1620760155.1,286047000.4,N
1620760175.9,286047000.8,N
1620760195.7,286046998.3,N
1620760215.6,286046998.8,N
1620760235.4,286046998.1,N
1620760255.2,286046999.9,N
1620760275.1,286047002.7,N
1620760276.0,286047002.7,N
1620760295.8,286047002.8,N
1620760315.6,286046999.9,N
1620760335.5,286047002.8,N
1620760355.3,286047002.7,N
1620760375.2,286047001.6,N
1620760395.9,286047002.8,N
1620760415.7,286047002.8,N
1620760435.6,286047000.4,N
1620760455.4,286047000.5,N
1620760475.2,286047000.0,N
1620760495.1,286047000.9,N
1620760496.0,286047000.9,N
1620760515.8,286047000.8,N
1620760535.7,286046999.7,N
1620760555.5,286047000.0,N
1620760575.3,286047000.9,N
1620760595.2,286046998.8,N
1620760615.0,286047000.2,N
1620760615.9,286047000.2,N
1620760635.7,286047000.1,N
1620760655.6,286047000.4,N
1620760675.4,286047002.3,N
1620760695.3,286047002.2,N
1620760715.1,286047004.0,N
1620760716.0,286047004.0,N
1620760735.8,286047001.3,N
1620760755.7,286047002.4,N
1620760775.5,286047000.3,N
1620760795.3,286047000.1,N
1620760815.2,286047000.4,N
1620760835.0,286047000.5,N
1620760835.9,286047000.5,N
1620760855.8,286046999.7,N
1620760875.6,286047002.4,N
1620760895.4,286047001.8,N
1620760915.3,286047004.3,Y
1620760935.1,286047004.2,P
1620760955.9,286047001.5,N
1620760975.7,286047001.7,N
1620760995.5,286047003.9,Y
1620761015.4,286047000.3,P
1620761035.2,286046998.4,N
1620761055.0,286046998.6,N
1620761055.9,286046998.6,N
1620761075.8,286046999.0,N
1620761095.6,286046999.4,N
1620761115.5,286046999.2,N
1620761135.3,286046997.0,N
1620761155.1,286046999.2,N
1620761175.9,286046999.3,N
1620761195.7,286046999.2,N
1620761215.6,286046998.1,N
1620761235.4,286047000.0,N
1620761255.2,286047000.4,N
1620761275.1,286047000.2,N
1620761276.0,286047000.2,N
1620761295.8,286046999.8,N
1620761315.6,286047000.1,N
1620761335.5,286047000.5,N
1620761355.3,286046999.4,N
1620761375.2,286047001.0,N
1620761395.9,286047000.4,N
1620761415.7,286047000.3,N
1620761435.6,286047003.6,Y
1620761455.4,286047003.6,P
1620761475.3,286047004.3,N
1620761495.1,286047003.7,N
1620761496.0,286047003.7,N
1620761515.8,286047001.3,N
1620761535.7,286047001.5,N
1620761555.5,286047001.4,N
1620761575.3,286047003.1,N
1620761595.2,286047003.8,N
1620761615.0,286047003.8,N
1620761615.9,286047003.8,N
1620761635.8,286047005.9,Y
1620761655.6,286046999.7,P
1620761675.4,286047002.5,N
1620761695.3,286047002.5,N
1620761715.1,286047000.3,N
1620761735.8,286047000.5,N
1620761755.7,286047000.0,N
1620761775.5,286047000.7,N
1620761795.4,286046998.5,N
1620761815.2,286046997.0,N
1620761835.0,286046999.6,N
1620761835.9,286046999.6,N
1620761855.8,286046999.0,N
1620761875.6,286046998.8,N
1620761895.4,286046999.1,N
1620761915.3,286046999.1,N
1620761935.1,286046999.5,N
1620761955.9,286046996.5,N
1620761975.7,286046999.0,N
1620761995.5,286046999.5,N
1620762015.4,286046997.0,N
1620762035.2,286046998.1,N
1620762055.0,286046998.8,N
1620762055.9,286046998.8,N
1620762075.8,286046998.8,N
1620762095.6,286046998.6,N
1620762115.5,286046996.8,N
1620762135.3,286046999.1,N
1620762155.1,286046996.5,N
1620762175.9,286046997.3,N
1620762195.7,286046997.2,N
1620762215.5,286046997.4,N
1620762235.4,286046997.0,N
1620762255.2,286046997.7,N
1620762275.1,286046995.0,Y
1620762276.0,286046995.0,P
1620762295.8,286046997.2,N
1620762315.6,286046997.0,N
1620762335.5,286046996.9,N
1620762355.3,286046998.0,N
1620762375.2,286046997.5,N
1620762395.9,286046997.5,N
1620762415.7,286046996.2,Y
1620762435.6,286046999.1,P
1620762455.4,286046999.0,N
1620762475.2,286046998.7,N
1620762495.1,286046999.3,N
1620762496.0,286046999.3,N
1620762515.8,286046999.6,N
1620762535.7,286046999.2,N
1620762555.5,286046996.6,Y
1620762575.3,286046999.0,P
1620762595.2,286046997.0,P
1620762615.0,286046996.6,P
1620762615.9,286046996.6,Y
1620762635.8,286046998.8,P
1620762655.6,286046997.0,P
1620762675.4,286046997.3,P
1620762695.3,286046998.8,N
1620762715.1,286046996.6,Y
1620762735.9,286047001.0,P
1620762755.7,286046999.8,N
1620762775.5,286047000.4,N
1620762795.4,286047000.5,N
1620762815.2,286047000.2,N
1620762835.0,286046998.1,N
1620762835.9,286046998.1,N
1620762855.8,286046998.1,N
1620762875.6,286046998.2,N
1620762895.5,286046998.3,N
1620762915.3,286046998.5,N
1620762935.1,286047001.0,N
1620762955.9,286046999.8,N
1620762975.7,286047000.2,N
1620762995.5,286046999.7,N
1620763015.4,286047002.7,N
1620763035.2,286047002.8,N
1620763055.1,286047000.3,N
1620763056.0,286047000.3,N
1620763075.8,286047000.3,N
1620763095.6,286046998.6,N
1620763115.5,286047000.8,N
1620763135.3,286047000.2,N
1620763155.1,286047000.2,N
1620763175.9,286047001.1,N
1620763195.7,286046998.5,N
